TimeEST,TemperatureF,Dew PointF,Humidity,Sea Level PressureIn,VisibilityMPH,Wind Direction,Wind SpeedMPH,Gust SpeedMPH,PrecipitationIn,Events,Conditions,WindDirDegrees,DateUTC
12:51 AM,53.1,46.0,77,29.76,10.0,SE,5.8,-,N/A,,Mostly Cloudy,140,2013-01-30 05:51:00
1:51 AM,55.9,46.9,72,29.70,10.0,South,8.1,-,N/A,,Mostly Cloudy,170,2013-01-30 06:51:00
2:51 AM,59.0,46.0,62,29.68,10.0,South,10.4,-,N/A,,Mostly Cloudy,180,2013-01-30 07:51:00
3:51 AM,59.0,46.0,62,29.64,10.0,South,9.2,-,N/A,,Overcast,170,2013-01-30 08:51:00
4:51 AM,60.1,46.9,62,29.59,10.0,South,9.2,-,N/A,,Overcast,170,2013-01-30 09:51:00
5:51 AM,60.1,46.9,62,29.56,10.0,SSE,12.7,-,N/A,,Mostly Cloudy,160,2013-01-30 10:51:00
6:51 AM,59.0,48.0,67,29.52,10.0,South,9.2,-,N/A,,Mostly Cloudy,170,2013-01-30 11:51:00
7:51 AM,59.0,48.9,69,29.50,10.0,SSE,9.2,-,N/A,,Overcast,150,2013-01-30 12:51:00
8:51 AM,66.0,51.1,59,29.44,10.0,South,15.0,25.3,N/A,,Overcast,180,2013-01-30 13:51:00
9:51 AM,68.0,51.1,55,29.41,10.0,South,15.0,23.0,0.00,Rain,Light Rain,170,2013-01-30 14:51:00
9:56 AM,68.0,51.8,56,29.44,2.0,SSW,18.4,25.3,0.00,Rain,Heavy Rain,200,2013-01-30 14:56:00
10:10 AM,60.8,55.4,82,29.49,5.0,WSW,19.6,41.4,0.05,Rain,Light Rain,250,2013-01-30 15:10:00
10:51 AM,60.1,54.0,80,29.54,10.0,West,9.2,23.0,0.08,Rain,Light Rain,270,2013-01-30 15:51:00
11:51 AM,60.1,54.0,80,29.52,10.0,SW,10.4,-,0.00,Rain,Light Rain,220,2013-01-30 16:51:00
12:51 PM,57.9,53.1,84,29.51,10.0,SW,11.5,24.2,0.01,Rain,Light Rain,230,2013-01-30 17:51:00
1:51 PM,55.9,52.0,87,29.50,6.0,South,12.7,19.6,0.04,Rain,Light Rain,190,2013-01-30 18:51:00
2:51 PM,55.0,52.0,89,29.49,6.0,South,10.4,-,0.11,Rain,Light Rain,170,2013-01-30 19:51:00
3:51 PM,54.0,52.0,93,29.47,6.0,South,11.5,18.4,0.11,Rain,Light Rain,180,2013-01-30 20:51:00
4:51 PM,53.6,51.8,94,29.40,6.0,SSE,15.0,-,N/A,Rain,Light Rain,150,2013-01-30 21:51:00
5:15 PM,53.6,51.8,94,29.38,7.0,SSE,12.7,-,0.02,Rain,Light Rain,160,2013-01-30 22:15:00
5:51 PM,54.0,52.0,93,29.35,9.0,SSE,13.8,25.3,0.06,Rain,Light Rain,150,2013-01-30 22:51:00
6:51 PM,55.0,52.0,89,29.32,7.0,SSE,13.8,-,0.08,Rain,Light Rain,150,2013-01-30 23:51:00
7:51 PM,55.0,53.1,93,29.29,5.0,South,12.7,20.7,0.05,Rain,Light Rain,170,2013-01-31 00:51:00
8:38 PM,55.4,50.0,82,29.25,9.0,SW,10.4,21.9,0.13,Rain,Light Rain,220,2013-01-31 01:38:00
8:51 PM,55.0,48.9,80,29.25,8.0,SSW,13.8,28.8,0.13,Rain,Light Rain,210,2013-01-31 01:51:00
9:51 PM,52.0,48.0,86,29.25,8.0,SW,13.8,23.0,0.05,Rain,Light Rain,220,2013-01-31 02:51:00
10:51 PM,51.1,44.1,77,29.24,10.0,SW,16.1,29.9,0.03,Rain,Light Rain,220,2013-01-31 03:51:00
11:51 PM,50.0,42.1,74,29.26,10.0,SW,18.4,28.8,0.00,Rain,Light Rain,230,2013-01-31 04:51:00